Date String (YYYY-MM-DD hh:mm:ss) UTC,Instrument flags,Ambient pressure (hPa),Sample flow (lpm),Bypass flow (lpm),Sample temperature (°C),Ambient temperature (°C),ASC tube jacket temperature (°C),LED temperature (°C),Box temperature (°C),Sample RH (%),Span deviation,Mass concentration (μg/m³),Mass concentration (μg/m³),Mass concentration (μg/m³)
DateTimeUTC,F1_M11,P_M11,Q1_M11,Q2_M11,T1_M11,T2_M11,T3_M11,T4_M11,T5_M11,U1_M11,ZSPAN_M11,X0_M11,X2_M11,X1_M11
2021-12-10 16:00:00,,0812.8,5.01,0.00,22.5,21.7,00.0,31.6,24.3,15.6,0000.0,0014.20,0004.59,0003.12
2021-12-10 16:01:00,,0812.8,5.00,0.00,22.5,21.7,00.0,31.6,24.3,15.5,0000.0,0013.93,0004.52,0003.10
2021-12-10 16:02:00,,0812.8,5.00,0.00,22.5,21.7,00.0,31.6,24.3,15.4,0000.0,0013.55,0004.46,0003.07
2021-12-10 16:03:00,,0812.8,5.02,0.00,22.5,21.7,00.0,31.5,24.2,15.4,0000.0,0013.64,0004.44,0003.05
2021-12-10 16:04:00,,0812.7,4.98,0.00,22.5,21.7,00.0,31.5,24.2,15.4,0000.0,0013.96,0004.40,0003.05
2021-12-10 16:05:00,,0812.8,5.00,0.00,22.5,21.7,00.0,31.5,24.2,15.4,0000.0,0014.46,0004.36,0003.04
2021-12-10 16:06:00,,0812.8,5.01,0.00,22.5,21.7,00.0,31.5,24.2,15.5,0000.0,0014.02,0004.25,0003.03
2021-12-10 16:07:00,,0812.9,5.00,0.00,22.5,21.7,00.0,31.5,24.2,15.5,0000.0,0014.27,0004.22,0003.02
2021-12-10 16:08:00,,0812.9,4.99,0.00,22.4,21.6,00.0,31.5,24.2,15.6,0000.0,0013.77,0004.18,0003.01
2021-12-10 16:09:00,,0812.9,5.01,0.00,22.4,21.6,00.0,31.5,24.2,15.6,0000.0,0014.46,0004.19,0002.98
2021-12-10 16:10:00,,0813.0,4.99,0.00,22.4,21.7,00.0,31.5,24.2,15.6,0000.0,0014.27,0004.19,0002.95
2021-12-10 16:11:00,,0813.0,4.99,0.00,22.4,21.7,00.0,31.5,24.2,15.6,0000.0,0014.26,0004.18,0002.94
2021-12-10 16:12:00,,0813.1,5.00,0.00,22.4,21.7,00.0,31.5,24.1,15.6,0000.0,0014.55,0004.19,0002.96
2021-12-10 16:13:00,,0813.0,5.00,0.00,22.4,21.9,00.0,31.5,24.2,15.6,0000.0,0015.07,0004.20,0002.98
2021-12-10 16:14:00,,0813.3,4.98,0.00,22.6,22.7,00.0,31.5,24.4,15.5,0000.0,0014.82,0004.13,0002.97
2021-12-10 16:15:00,,0813.1,5.00,0.00,22.7,23.3,00.0,31.6,24.7,15.4,0000.0,0014.51,0004.13,0002.98
2021-12-10 16:16:00,,0813.1,4.99,0.00,22.8,23.2,00.0,31.6,24.8,15.2,0000.0,0013.82,0004.12,0002.99
2021-12-10 16:17:00,,0813.1,5.01,0.00,22.8,23.0,00.0,31.6,24.7,15.1,0000.0,0013.98,0004.21,0003.00
2021-12-10 16:18:00,,0813.1,4.99,0.00,22.8,22.8,00.0,31.6,24.6,15.0,0000.0,0013.99,0004.26,0003.03
2021-12-10 16:19:00,,0813.1,5.00,0.00,22.8,22.7,00.0,31.6,24.6,15.0,0000.0,0014.25,0004.30,0003.04
2021-12-10 16:20:00,,0813.1,5.00,0.00,22.8,22.5,00.0,31.6,24.5,15.1,0000.0,0013.35,0004.31,0003.06
2021-12-10 16:21:00,,0813.1,5.00,0.00,22.7,22.4,00.0,31.6,24.5,15.0,0000.0,0012.57,0004.29,0003.07
2021-12-10 16:22:00,,0813.1,5.00,0.00,22.7,22.3,00.0,31.7,24.5,14.9,0000.0,0012.32,0004.26,0003.10
2021-12-10 16:23:00,,0813.1,5.00,0.00,22.7,22.3,00.0,31.7,24.5,15.0,0000.0,0012.74,0004.28,0003.12
2021-12-10 16:24:00,,0813.1,5.00,0.00,22.7,22.2,00.0,31.7,24.5,15.1,0000.0,0011.95,0004.28,0003.12
2021-12-10 16:25:00,,0813.1,5.01,0.00,22.7,22.2,00.0,31.7,24.5,15.2,0000.0,0011.98,0004.31,0003.13
2021-12-10 16:26:00,,0813.1,4.99,0.00,22.7,22.1,00.0,31.7,24.5,15.2,0000.0,0012.51,0004.31,0003.15
2021-12-10 16:27:00,,0813.1,4.99,0.00,22.7,22.1,00.0,31.7,24.5,15.2,0000.0,0013.25,0004.35,0003.16
2021-12-10 16:28:00,,0813.1,5.00,0.00,22.7,22.1,00.0,31.7,24.5,15.1,0000.0,0012.93,0004.31,0003.16
2021-12-10 16:29:00,,0813.1,5.01,0.00,22.7,22.1,00.0,31.7,24.5,15.1,0000.0,0012.04,0004.28,0003.16
2021-12-10 16:30:00,,0813.1,5.01,0.00,22.7,22.0,00.0,31.7,24.5,15.1,0000.0,0011.88,0004.25,0003.16
2021-12-10 16:31:00,,0813.2,4.99,0.00,22.7,22.0,00.0,31.7,24.5,15.1,0000.0,0011.76,0004.22,0003.16
2021-12-10 16:32:00,,0813.2,4.99,0.00,22.7,22.0,00.0,31.7,24.4,15.2,0000.0,0011.86,0004.23,0003.18
2021-12-10 16:33:00,,0813.2,5.00,0.00,22.7,22.0,00.0,31.7,24.4,15.1,0000.0,0011.91,0004.24,0003.19
2021-12-10 16:34:00,,0813.3,4.99,0.00,22.7,22.0,00.0,31.7,24.4,15.1,0000.0,0011.63,0004.28,0003.19
2021-12-10 16:35:00,,0813.3,5.01,0.00,22.7,21.9,00.0,31.7,24.4,15.1,0000.0,0011.75,0004.32,0003.20
2021-12-10 16:36:00,,0813.3,4.99,0.00,22.7,21.9,00.0,31.6,24.4,15.0,0000.0,0011.72,0004.36,0003.22
2021-12-10 16:37:00,,0813.3,5.00,0.00,22.7,21.9,00.0,31.6,24.4,15.0,0000.0,0011.64,0004.36,0003.23
2021-12-10 16:38:00,,0813.3,5.01,0.00,22.7,21.9,00.0,31.6,24.4,15.0,0000.0,0010.78,0004.31,0003.24
2021-12-10 16:39:00,,0813.3,5.00,0.00,22.7,21.9,00.0,31.6,24.4,14.9,0000.0,0010.87,0004.35,0003.26
2021-12-10 16:40:00,,0813.3,4.99,0.00,22.6,21.9,00.0,31.6,24.4,14.8,0000.0,0010.81,0004.37,0003.27
2021-12-10 16:41:00,,0813.2,4.99,0.00,22.6,21.9,00.0,31.6,24.4,14.7,0000.0,0011.02,0004.41,0003.29
2021-12-10 16:42:00,,0813.2,5.01,0.00,22.6,21.9,00.0,31.6,24.4,14.6,0000.0,0011.14,0004.44,0003.31
2021-12-10 16:43:00,,0813.2,4.99,0.00,22.6,21.9,00.0,31.6,24.4,14.7,0000.0,0011.45,0004.46,0003.32
2021-12-10 16:44:00,,0813.2,5.00,0.00,22.6,21.9,00.0,31.6,24.4,14.7,0000.0,0011.22,0004.47,0003.32
2021-12-10 16:45:00,,0813.2,4.99,0.00,22.6,21.9,00.0,31.6,24.4,14.7,0000.0,0011.04,0004.47,0003.33
2021-12-10 16:46:00,,0813.2,5.01,0.00,22.6,21.9,00.0,31.6,24.4,14.7,0000.0,0011.74,0004.47,0003.34
2021-12-10 16:47:00,,0813.2,5.00,0.00,22.6,21.9,00.0,31.6,24.4,14.7,0000.0,0012.57,0004.51,0003.33
2021-12-10 16:48:00,,0813.2,4.98,0.00,22.6,21.9,00.0,31.6,24.4,14.7,0000.0,0012.49,0004.55,0003.34
2021-12-10 16:49:00,,0813.2,5.00,0.00,22.6,21.9,00.0,31.6,24.3,14.8,0000.0,0012.57,0004.56,0003.35
2021-12-10 16:50:00,,0813.1,5.00,0.00,22.6,21.9,00.0,31.6,24.3,14.8,0000.0,0012.90,0004.54,0003.34
2021-12-10 16:51:00,,0813.2,5.00,0.00,22.6,21.9,00.0,31.6,24.3,14.7,0000.0,0013.04,0004.50,0003.33
2021-12-10 16:52:00,,0813.1,4.99,0.00,22.6,21.8,00.0,31.6,24.4,14.8,0000.0,0012.66,0004.48,0003.33
2021-12-10 16:53:00,,0813.1,4.99,0.00,22.6,21.8,00.0,31.6,24.4,14.8,0000.0,0013.04,0004.53,0003.34
2021-12-10 16:54:00,,0813.1,5.00,0.00,22.6,21.8,00.0,31.6,24.3,14.8,0000.0,0012.79,0004.51,0003.34
2021-12-10 16:55:00,,0813.1,4.99,0.00,22.6,21.8,00.0,31.6,24.4,14.8,0000.0,0013.29,0004.55,0003.34
2021-12-10 16:56:00,,0813.1,4.99,0.00,22.6,21.8,00.0,31.5,24.3,14.8,0000.0,0013.44,0004.54,0003.34
2021-12-10 16:57:00,,0813.2,5.00,0.00,22.6,21.8,00.0,31.5,24.3,14.8,0000.0,0012.69,0004.48,0003.34
2021-12-10 16:58:00,,0813.2,5.00,0.00,22.6,21.8,00.0,31.5,24.3,14.9,0000.0,0012.39,0004.39,0003.33
2021-12-10 16:59:00,,0813.1,5.00,0.00,22.6,21.8,00.0,31.5,24.3,14.9,0000.0,0011.88,0004.37,0003.32
